Location: Baia de Cri?
(46.1667°N, 22.7167°E)
Time: 07:29:21
(UTC+00:00)

BlueWalker 3 - Visible Passes

Search period start: 12 March 2026 00:00
Search period end: 22 March 2026 00:00
Orbit: 451 x 458 km, 53.2° (Epoch: 11 March)

Date Brightness Start Highest point End Pass type
(mag) Time Alt. Az. Time Alt. Az. Time Alt. Az.
12 Mar 3.8 02:15:31 25° NNE 02:15:31 25° NNE 02:17:59 10° ENE visible
12 Mar 2.3 03:49:16 10° NW 03:52:49 57° NNE 03:56:23 10° ESE visible
13 Mar 4.8 01:40:47 15° NE 01:40:47 15° NE 01:41:41 10° ENE visible
13 Mar 2.5 03:14:27 20° NW 03:16:37 48° NNE 03:20:07 10° E visible
14 Mar 2.8 02:39:46 37° N 02:40:24 41° NNE 02:43:49 10° E visible
15 Mar 3.7 02:05:10 29° NE 02:05:10 29° NE 02:07:30 10° E visible
15 Mar 1.8 03:38:52 15° WNW 03:41:44 57° SW 03:45:15 10° SE visible
16 Mar 4.9 01:30:42 13° ENE 01:30:42 13° ENE 01:31:09 10° E visible
16 Mar 1.6 03:04:23 40° WNW 03:05:34 74° SSW 03:09:08 10° SE visible
17 Mar 2.2 02:30:04 55° ESE 02:30:04 55° ESE 02:32:57 10° ESE visible
17 Mar 3.5 04:04:08 10° W 04:06:21 16° SW 04:08:32 10° S visible
18 Mar 4.4 01:55:56 16° ESE 01:55:56 16° ESE 01:56:42 10° ESE visible
18 Mar 3.1 03:29:40 19° WSW 03:30:14 20° SW 03:32:56 10° S visible
19 Mar 3.6 02:55:46 18° S 02:55:46 18° S 02:57:08 10° SSE visible
21 Mar 3.7 18:31:14 10° SSW 18:32:27 18° S 18:32:27 18° S visible
